EA3IR Weather Reports


time (UTC)temp
C
wind
direction
speed
KPH
gust
KPH
rain 1hr
cm
rain 24hr
cm
rain mn
cm
humidity
%
barometer
mb
20260502130517 19 105 6.4 16.1 0.00 0.00 0.00 73 1020.8
20260502123517 19 103 8.0 19.3 0.00 0.00 0.00 73 1020.9
20260502123016 19 106 6.4 14.5 0.00 0.00 0.00 73 1020.9
20260502122517 19 98 4.8 14.5 0.00 0.00 0.00 72 1021.0
20260502122017 20 95 4.8 14.5 0.00 0.00 0.00 72 1021.1
20260502121516 20 91 6.4 16.1 0.00 0.00 0.00 72 1021.1
20260502121017 20 108 4.8 16.1 0.00 0.00 0.00 72 1021.2
20260502120516 19 90 6.4 14.5 0.00 0.00 0.00 73 1021.2
20260502115516 19 113 8.0 14.5 0.00 0.00 0.00 73 1021.3
20260502114018 20 121 6.4 14.5 0.00 0.00 0.00 72 1021.4
20260502113516 19 113 8.0 19.3 0.00 0.00 0.00 71 1021.5
20260502113017 20 106 6.4 17.7 0.00 0.00 0.00 70 1021.6
20260502112017 20 116 6.4 16.1 0.00 0.00 0.00 69 1021.7
20260502111516 20 113 6.4 17.7 0.00 0.00 0.00 68 1021.7
20260502111017 21 110 4.8 16.1 0.00 0.00 0.00 67 1021.8
20260502110018 21 91 4.8 11.3 0.00 0.00 0.00 69 1021.8
20260502105516 20 119 4.8 11.3 0.00 0.00 0.00 69 1021.9
20260502103516 20 86 6.4 12.9 0.00 0.00 0.00 69 1022.1
20260502103017 20 104 8.0 16.1 0.00 0.00 0.00 68 1022.1
20260502102518 20 110 9.7 17.7 0.00 0.00 0.00 68 1022.3
20260502102017 21 107 8.0 17.7 0.00 0.00 0.00 67 1022.3
20260502101516 21 117 6.4 16.1 0.00 0.00 0.00 67 1022.4
20260502100516 21 120 4.8 14.5 0.00 0.00 0.00 68 1022.5
20260502091516 20 116 3.2 11.3 0.00 0.00 0.00 63 1022.6
20260502091017 21 109 3.2 11.3 0.00 0.00 0.00 61 1022.7
20260502090516 21 163 3.2 8.0 0.00 0.00 0.00 59 1022.5
20260502071017 17 67 1.6 6.4 0.00 0.00 0.00 75 1022.9
20260502070516 18 19 1.6 3.2 0.00 0.00 0.00 77 1023.0
20260502070018 17 21 1.6 4.8 0.00 0.00 0.00 77 1023.0
20260502065516 17 330 1.6 3.2 0.00 0.00 0.00 78 1023.0
20260502065017 17 15 1.6 4.8 0.00 0.00 0.00 79 1022.9
20260502064017 16 41 3.2 6.4 0.00 0.00 0.00 79 1022.9
20260502062517 16 124 0.0 3.2 0.00 0.00 0.00 80 1022.8
20260502062016 16 229 0.0 1.6 0.00 0.00 0.00 80 1022.8
20260502061017 16 229 0.0 1.6 0.00 0.00 0.00 80 1022.9
20260502060516 15 229 0.0 1.6 0.00 0.00 0.00 81 1022.9
20260502060016 15 229 0.0 1.6 0.00 0.00 0.00 83 1022.9
20260502055516 15 0 0.0 0.0 0.00 0.00 0.00 84 1022.9
20260502055017 15 0 0.0 0.0 0.00 0.00 0.00 85 1022.9
20260502054516 15 0 0.0 0.0 0.00 0.00 0.00 85 1022.9
20260502054017 14 229 0.0 1.6 0.00 0.00 0.00 86 1022.8
20260502053517 14 230 0.0 1.6 0.00 0.00 0.00 86 1022.8
20260502053016 14 0 0.0 0.0 0.00 0.00 0.00 87 1022.7
20260502052516 14 230 0.0 1.6 0.00 0.00 0.00 87 1022.6
20260502051516 13 231 0.0 1.6 0.00 0.00 0.00 86 1022.5
20260502050017 13 0 0.0 0.0 0.00 0.00 0.00 86 1022.5
20260502045517 13 0 0.0 0.0 0.00 0.00 0.00 85 1022.5
20260502045016 13 231 0.0 1.6 0.00 0.00 0.00 85 1022.5
20260502044517 13 231 0.0 1.6 0.00 0.00 0.00 84 1022.5
20260502043516 13 227 0.0 3.2 0.00 0.00 0.00 84 1022.5
20260502043016 13 227 0.0 1.6 0.00 0.00 0.00 83 1022.5
20260502042518 14 227 0.0 1.6 0.00 0.00 0.00 83 1022.5
20260502042018 14 0 0.0 0.0 0.00 0.00 0.00 82 1022.5
20260502041518 14 227 0.0 1.6 0.00 0.00 0.00 82 1022.5
20260502040516 14 222 1.6 4.8 0.00 0.00 0.00 82 1022.5
20260502035516 14 218 1.6 3.2 0.00 0.00 0.00 82 1022.6
20260502035016 14 258 1.6 3.2 0.00 0.00 0.00 82 1022.6
20260502034517 14 257 1.6 3.2 0.00 0.00 0.00 82 1022.6
20260502034017 14 345 0.0 3.2 0.00 0.00 0.00 83 1022.7
20260502033516 14 345 0.0 3.2 0.00 0.00 0.00 84 1022.7
20260502033017 14 345 0.0 1.6 0.00 0.00 0.00 84 1022.7
20260502032017 14 0 0.0 0.0 0.00 0.00 0.00 84 1022.7
20260502031516 14 345 0.0 1.6 0.00 0.00 0.00 85 1022.8
20260502030516 14 0 0.0 0.0 0.00 0.00 0.00 85 1022.7
20260502030016 14 346 0.0 1.6 0.00 0.00 0.00 86 1022.7
20260502025516 15 0 0.0 0.0 0.00 0.00 0.00 86 1022.8
20260502025016 15 0 0.0 0.0 0.00 0.00 0.00 86 1022.8
20260502024516 15 345 0.0 1.6 0.00 0.00 0.00 86 1022.8
20260502024017 15 346 0.0 1.6 0.00 0.00 0.00 86 1022.8
20260502023516 15 0 0.0 0.0 0.00 0.00 0.00 86 1022.9
20260502023016 15 0 0.0 0.0 0.00 0.00 0.00 86 1022.8
20260502022516 15 346 0.0 1.6 0.00 0.00 0.00 86 1022.9
20260502022017 15 333 0.0 3.2 0.00 0.00 0.00 86 1022.9
20260502021517 15 272 1.6 1.6 0.00 0.00 0.00 86 1023.0
20260502021017 15 272 1.6 3.2 0.00 0.00 0.00 86 1023.0
20260502020017 15 20 1.6 3.2 0.00 0.00 0.00 85 1023.0
20260502015516 15 20 0.0 3.2 0.00 0.00 0.00 85 1023.2
20260502014517 15 12 1.6 4.8 0.00 0.00 0.00 84 1023.3
20260502014016 15 225 0.0 3.2 0.00 0.00 0.00 83 1023.3
20260502013517 15 225 0.0 1.6 0.00 0.00 0.00 82 1023.2
20260502013017 15 225 0.0 1.6 0.00 0.00 0.00 82 1023.2
20260502012516 15 225 0.0 1.6 0.00 0.00 0.00 81 1023.2
20260502012016 15 225 0.0 1.6 0.00 0.00 0.00 81 1023.2
20260502011517 15 225 1.6 1.6 0.00 0.00 0.00 81 1023.3
20260502011016 15 230 3.2 6.4 0.00 0.00 0.00 81 1023.4
20260502010516 15 225 1.6 6.4 0.00 0.00 0.00 81 1023.3
20260502010016 15 216 1.6 4.8 0.00 0.00 0.00 81 1023.3
20260502005516 15 195 1.6 4.8 0.00 0.00 0.00 81 1023.4
20260502005016 15 231 0.0 4.8 0.00 0.00 0.00 82 1023.5
20260502004516 15 232 0.0 1.6 0.00 0.00 0.00 83 1023.5
20260502004017 15 232 0.0 3.2 0.00 0.00 0.00 83 1023.5
20260502002517 15 232 0.0 1.6 0.00 0.00 0.00 83 1023.5
20260502002017 15 231 0.0 1.6 0.00 0.00 0.00 83 1023.6
20260502001516 15 232 0.0 1.6 0.00 0.00 0.00 83 1023.6
20260502001017 15 231 1.6 3.2 0.00 0.00 0.00 82 1023.7
20260502000516 15 231 1.6 4.8 0.00 0.00 0.00 83 1023.6
20260502000016 15 232 0.0 1.6 0.00 0.00 0.00 83 1023.7
20260501235517 15 0 0.0 0.0 0.00 0.00 0.00 83 1023.9
20260501235016 15 0 0.0 0.0 0.00 0.00 0.00 83 1023.9
20260501233516 15 204 1.6 3.2 0.00 0.00 0.00 84 1023.9
20260501233017 15 204 1.6 3.2 0.00 0.00 0.00 84 1023.9
20260501232517 15 204 0.0 3.2 0.00 0.00 0.00 83 1023.9
20260501232017 15 205 0.0 1.6 0.00 0.00 0.00 84 1023.9
20260501231518 15 204 1.6 3.2 0.00 0.00 0.00 83 1023.9
20260501230517 15 230 1.6 4.8 0.00 0.00 0.00 83 1023.9
20260501230017 15 231 0.0 1.6 0.00 0.00 0.00 83 1023.9
20260501225516 15 230 0.0 1.6 0.00 0.00 0.00 83 1023.9
20260501225016 15 230 1.6 1.6 0.00 0.00 0.00 82 1023.9
20260501224516 15 230 1.6 3.2 0.00 0.00 0.00 82 1023.8
20260501224016 15 230 1.6 4.8 0.00 0.00 0.00 82 1023.7
20260501223016 15 219 3.2 4.8 0.00 0.00 0.00 83 1023.6
20260501222517 15 276 1.6 3.2 0.00 0.00 0.00 84 1023.7
20260501222017 15 277 0.0 3.2 0.00 0.00 0.00 84 1023.8
20260501221516 15 0 0.0 0.0 0.00 0.00 0.00 83 1023.8
20260501221016 15 0 1.6 0.0 0.00 0.00 0.00 83 1023.8
20260501220516 15 277 1.6 3.2 0.00 0.00 0.00 83 1023.8
20260501220021 15 276 0.0 1.6 0.00 0.00 0.00 83 1023.7
20260501215515 15 0 0.0 0.0 0.00 0.00 0.00 83 1023.7
20260501215016 15 276 0.0 1.6 0.00 0.00 0.00 82 1023.7
20260501214516 16 276 0.0 1.6 0.00 0.00 0.00 82 1023.8
20260501214018 16 277 1.6 3.2 0.00 0.00 0.00 82 1023.8
20260501213516 16 276 1.6 3.2 0.00 0.00 0.00 82 1023.7
20260501213016 16 277 1.6 1.6 0.00 0.00 0.00 82 1023.8
20260501212516 16 277 1.6 4.8 0.00 0.00 0.00 82 1023.8
20260501211518 16 276 1.6 4.8 0.00 0.00 0.00 82 1023.7
20260501211016 16 276 1.6 3.2 0.00 0.00 0.00 83 1023.8
20260501210516 16 277 3.2 4.8 0.00 0.00 0.00 83 1023.8
20260501210016 16 276 1.6 4.8 0.00 0.00 0.00 83 1023.9
20260501205016 16 166 0.0 1.6 0.00 0.00 0.00 84 1024.0
20260501204516 16 166 0.0 1.6 0.00 0.00 0.00 83 1024.0
20260501203016 16 166 0.0 1.6 0.00 0.00 0.00 82 1023.9
20260501202017 16 166 0.0 1.6 0.00 0.00 0.00 81 1023.8
20260501201516 16 166 0.0 1.6 0.00 0.00 0.00 81 1023.7
20260501201017 16 167 0.0 1.6 0.00 0.00 0.00 81 1023.8
20260501200516 16 166 0.0 1.6 0.00 0.00 0.00 81 1023.8
20260501200017 16 0 0.0 0.0 0.00 0.00 0.00 82 1023.8
20260501195516 16 0 0.0 0.0 0.00 0.00 0.00 81 1023.7
20260501195016 16 166 0.0 1.6 0.00 0.00 0.00 81 1023.7
20260501194516 16 167 1.6 3.2 0.00 0.00 0.00 81 1023.7
20260501194017 16 167 1.6 3.2 0.00 0.00 0.00 81 1023.6
20260501193516 16 166 0.0 6.4 0.00 0.00 0.00 81 1023.6
20260501193016 16 175 0.0 1.6 0.00 0.00 0.00 81 1023.5
20260501191516 16 94 1.6 1.6 0.00 0.00 0.00 82 1023.4
20260501190516 16 109 1.6 6.4 0.00 0.00 0.00 82 1023.3
20260501190017 16 129 1.6 4.8 0.00 0.00 0.00 81 1023.2
20260501185516 16 175 1.6 6.4 0.00 0.00 0.00 81 1023.2
20260501184516 16 117 0.0 1.6 0.00 0.00 0.00 80 1023.2
20260501184016 16 117 1.6 3.2 0.00 0.00 0.00 80 1023.2
20260501183516 17 118 1.6 4.8 0.00 0.00 0.00 80 1023.1
20260501183016 17 130 1.6 6.4 0.00 0.00 0.00 79 1023.2
20260501182516 17 92 3.2 6.4 0.00 0.00 0.00 79 1023.1
20260501181516 17 173 3.2 8.0 0.00 0.00 0.00 77 1023.0
20260501181017 17 125 3.2 12.9 0.00 0.00 0.00 77 1022.9
20260501180516 17 93 3.2 8.0 0.00 0.00 0.00 77 1023.0
20260501180018 17 128 3.2 3.2 0.00 0.00 0.00 77 1023.0
20260501175516 17 133 3.2 9.7 0.00 0.00 0.00 76 1022.9
20260501175017 17 112 4.8 12.9 0.00 0.00 0.00 75 1022.9
20260501174516 17 154 3.2 9.7 0.00 0.00 0.00 75 1022.9
20260501174017 17 126 3.2 8.0 0.00 0.00 0.00 74 1022.9
20260501173516 17 112 3.2 14.5 0.00 0.00 0.00 74 1022.9
20260501173016 18 101 3.2 6.4 0.00 0.00 0.00 73 1022.9
20260501172516 17 82 3.2 6.4 0.00 0.00 0.00 73 1022.9
20260501172017 17 99 4.8 9.7 0.00 0.00 0.00 73 1022.9
20260501171516 17 106 4.8 9.7 0.00 0.00 0.00 73 1022.8
20260501170515 18 118 4.8 11.3 0.00 0.00 0.00 71 1022.8
20260501164516 18 98 3.2 6.4 0.00 0.00 0.00 69 1022.7
20260501164017 18 123 4.8 11.3 0.00 0.00 0.00 68 1022.6
20260501163516 18 109 4.8 9.7 0.00 0.00 0.00 67 1022.6
20260501163017 18 115 4.8 12.9 0.00 0.00 0.00 67 1022.6
20260501162516 18 122 4.8 11.3 0.00 0.00 0.00 65 1022.6
20260501162016 18 112 3.2 16.1 0.00 0.00 0.00 64 1022.6
20260501161517 18 102 4.8 9.7 0.00 0.00 0.00 63 1022.6
20260501161017 18 110 4.8 14.5 0.00 0.00 0.00 63 1022.7
20260501160517 18 111 4.8 14.5 0.00 0.00 0.00 62 1022.6
20260501160017 19 114 4.8 16.1 0.00 0.00 0.00 62 1022.6
20260501155516 19 98 4.8 11.3 0.00 0.00 0.00 60 1022.6
20260501154016 20 115 6.4 19.3 0.00 0.00 0.00 58 1022.5
20260501153516 20 98 6.4 14.5 0.00 0.00 0.00 56 1022.5
20260501153016 20 111 6.4 16.1 0.00 0.00 0.00 55 1022.5
20260501152516 20 119 4.8 14.5 0.00 0.00 0.00 54 1022.5
20260501151517 20 110 6.4 12.9 0.00 0.00 0.00 54 1022.5
20260501151016 20 116 4.8 17.7 0.00 0.00 0.00 53 1022.5
20260501150016 21 90 3.2 11.3 0.00 0.00 0.00 51 1022.4
20260501145516 21 96 4.8 6.4 0.00 0.00 0.00 51 1022.5
20260501145016 21 116 4.8 12.9 0.00 0.00 0.00 51 1022.5
20260501144516 21 120 4.8 12.9 0.00 0.00 0.00 52 1022.5
20260501144017 21 119 6.4 16.1 0.00 0.00 0.00 52 1022.6
20260501143016 21 95 3.2 11.3 0.00 0.00 0.00 49 1022.6